Hourly Data Report for October 05, 2017

All times are specified in Local Standard Time (LST). Add 1 hour to adjust for Daylight Saving Time where and when it is observed.

NAPPAN AUTO
NOVA SCOTIA

45°45'34.400" N
64°14'29.200" W
19.80 m
8203702
71311
XNP

Download Data

Hourly Data (October 2017)
Hourly Data Report for October 5, 2017
Temp Definition
°C
Dew Point Temp Definition
°C
Rel Hum Definition
%
Wind Dir Definition
10's deg

Wind Spd Definition
km/h
Visibility Definition
km
Stn Press Definition
kPa
Hmdx Definition


Wind Chill Definition


Weather Definition


TIME
00:00 14.1 11.6 85 20 23   101.01     LegendNANA
01:00 14.3 11.8 85 19 20   100.93     LegendNANA
02:00 14.3 12.0 86 18 16   100.86     LegendNANA
03:00 16.0 12.7 81 22 24   100.79     LegendNANA
04:00 16.2 12.8 80 21 30   100.73     LegendNANA
05:00 15.8 12.9 83 21 25   100.71     LegendNANA
06:00 15.1 12.9 87 21 20   100.82     LegendNANA
07:00 14.7 12.9 89 21 23   100.85     LegendNANA
08:00 15.7 13.3 86 23 21   100.93     LegendNANA
09:00 17.4 13.8 80 24 19   100.98     LegendNANA
10:00 18.9 13.0 69 27 17   101.03     LegendNANA
11:00 20.1 10.8 55 27 17   101.03     LegendNANA
12:00 20.4 8.8 47 29 19   101.01     LegendNANA
13:00 20.4 9.3 49 26 17   100.97     LegendNANA
14:00 20.6 7.5 43 29 14   100.94     LegendNANA
15:00 20.6 7.7 43 24 15   100.94     LegendNANA
16:00 19.3 8.4 49 25 20   100.96     LegendNANA
17:00 17.5 11.2 67 23 18   101.01     LegendNANA
18:00 15.7 11.1 74 23 16   101.02     LegendNANA
19:00 13.7 10.5 81 21 10   101.06     LegendNANA
20:00 13.4 10.3 82 15 7   101.09     LegendNANA
21:00 13.2 10.4 83 22 8   101.16     LegendNANA
22:00 11.6 9.7 88 16 10   101.15     LegendNANA
23:00 11.4 9.7 89 17 11   101.09     LegendNANA

Notes on Data Quality.

Legend

  • E = Estimated
  • M = Missing
  • NA = Not Available
  • ‡ = Partner data that is not subject to review by the National Climate Archives
Date modified: